{"data":{"norad_id":61209,"epoch":"2026-05-24T18:40:28.324704Z","epoch_age_seconds":94150,"freshness":"FRESH","line1":"1 61209U 24171K   26144.77810561 -.00003086  00000+0 -20613-4 0  9999","line2":"2 61209  53.1583 160.8503 0000621 113.1456 246.9627 15.69727442 97265","mean_motion":15.69727442,"eccentricity":6.21e-5,"inclination_deg":53.1583,"raan_deg":160.8503,"arg_perigee_deg":113.1456,"mean_anomaly_deg":246.9627,"bstar":-2.0613e-5,"rev_number":9726,"period_min":91.735670885978,"perigee_km":359.25842031502,"apogee_km":360.09525679377,"semimajor_km":6737.8138385544,"source":"CELESTRAK","updated_at":"2026-05-25T13:38:19.360460Z"}}